Weather in Portland

United States     45˚31′09″N   122˚40′17″W
temp.,
°C
wind,
m/s
gust,
m/s
humid.,
%
clouds,
%
prec.,
mm/h
press.,
hPa
HPBL,
m
2 december, wed
wed201:00+6˚ne412520 0.0 1027543
04:00+6˚ne412520 0.0 1027533
07:00+6˚ene513530 0.0 1026620
10:00+7˚ene511480 0.0 1026663
13:00+9˚ene611430 0.0 1024634
16:00+8˚ene5114822 0.0 1024511
19:00+6˚ene5115346 0.0 1025475
22:00+5˚ene4105523 0.0 1026436
3 december, thu
thu301:00+4˚ene395660 0.0 1027403
04:00+4˚nne275959 0.0 1027374
07:00+4˚ne2660100 0.0 1027288
10:00+5˚ne1253100 0.0 1028307
13:00+8˚ene1246100 0.0 1028340
16:00+7˚nw1150100 0.0 102990
19:00+6˚ene115588 0.0 103023
22:00+6˚ne115872 0.0 103125
4 december, fri
fri401:00+5˚ne016111 0.0 103122
04:00+5˚ne116033 0.0 103028
07:00+4˚nnw11629 0.0 103122
10:00+7˚ene13534 0.0 1031274
13:00+10˚nne12450 0.0 1028346
16:00+9˚n12530 0.0 102771
19:00+7˚ene27540 0.0 1027312
22:00+6˚ene29530 0.0 1027333
5 december, sat
sat501:00+5˚ene29550 0.0 1025330
04:00+4˚ne29560 0.0 1024349
07:00+4˚ene295921 0.0 1022324
10:00+6˚e265361 0.0 1021325
13:00+8˚sse0246100 0.0 1020354
16:00+7˚ene1267100 1.6 1020207
19:00+6˚ene1178100 1.3 1020153
22:00+7˚s1686100 1.5 1022391
6 december, sun
sun601:00+7˚ssw139399 0.9 1024247
04:00+7˚ssw0194100 3.0 102677
07:00+6˚ssw009472 0.0 102823
10:00+8˚sw018559 0.0 1030174
13:00+11˚s117351 0.0 1030317
16:00+10˚se127930 0.0 1031114
19:00+8˚e11891 0.0 103122
22:00+7˚ne019324 0.0 103122